Regional Weather Roundup
Issued by NWS Newport/Morehead, NC

Current Version | Previous Version | Text Only | Print | Product List | Glossary On
Versions: 1 2 3 4 5 6 7 8 9 10 11 12 13 14 15 16 17 18 19 20 21 22 23 24 25 26 27 28 29 30 31 32 33 34 35 36 37 38 39 40 41 42 43 44 45 46 47 48 49 50
000
ASUS42 KMHX 140313
RWRMHX
WEATHER ROUNDUP FOR EASTERN NORTH CAROLINA
NATIONAL WEATHER SERVICE NEWPORT/MOREHEAD CITY NC
1000 PM EST SAT FEB 13 2016

NOTE: "FAIR" INDICATES FEW OR NO CLOUDS BELOW 12,000 FEET
WITH NO SIGNIFICANT WEATHER AND/OR OBSTRUCTIONS TO VISIBILITY

NCZ015>017-031-032-045>047-102-103-140400-
NORTH COAST

CITY           SKY/WX    TMP DP  RH WIND       PRES   REMARKS
EDENTON        CLEAR     28   5  37 NW9       30.42R
ELIZABETH CITY CLEAR     25   6  44 N12       30.41R WCI  14
KITTY HAWK     CLEAR     26   1  33 NW6       30.38R
MANTEO         CLEAR     28   5  38 N7G16     30.40R

$$

NCZ045>047-081-094-103-104-140400-
CENTRAL COAST

CITY           SKY/WX    TMP DP  RH WIND       PRES   REMARKS
FRISCO         CLEAR     30   4  33 NW14G23   30.38R WCI  19
SWANQUARTER      N/A     27 N/A N/A NW10      30.39R WCI  17

$$

NCZ095-097-098-100-101-140400-
SOUTHERN COAST

CITY           SKY/WX    TMP DP  RH WIND       PRES   REMARKS
BEAUFORT       CLEAR     29   5  36 N10       30.41R WCI  20
CEDAR ISLAND     N/A     30 N/A N/A NW29      30.44S WCI  15
JACKSONVILLE   CLEAR     29   6  38 N9        30.42R
PINEY ISLAND   CLEAR    N/A N/A N/A NW15G24   30.41R
WILMINGTON     CLEAR     29   7  39 N6        30.41R


$$

NCZ011>013-027>030-043-044-078>080-089-090>093-098-140400-
COASTAL PLAIN

CITY           SKY/WX    TMP DP  RH WIND       PRES   REMARKS
AHOSKIE        CLEAR     24  -1  32 CALM      30.44R
CLINTON        CLEAR     29   8  42 N6        30.43R
ELIZABETHTOWN  CLEAR     28   9  44 N3        30.41R
GOLDSBORO      CLEAR     28   0  29 N9        30.42R
GREENVILLE     CLEAR     28   3  34 N6        30.43R
HAVELOCK       CLEAR     29   4  34 N18       30.42R WCI  16
KENANSVILLE    CLEAR     27   6  42 CALM      30.44R
KINSTON        CLEAR     28   3  34 N9        30.44R
NEW BERN       CLEAR     27   5  39 N9        30.43R
RICHLANDS      CLEAR     27   7  43 NW5       30.42R
ROCKY MOUNT    CLEAR     25  -1  32 NW13      30.44R WCI  14
WASHINGTON     CLEAR     25   2  37 N6        30.43R
WHITEVILLE     CLEAR     31   5  34 N3        30.40R

$$

AMZ130-135-150-152-154-156-158-170-250-252-270-ANZ085-086-088-633-658-670-140400-
MARINE OBSERVATIONS

STATION/POSITION TIME  TEMP    WIND        PRES    WAVE   SWELL
                       AIR SEA DIR/SP/G            HT/PER HT/PER
                 (UTC) (F)     (DEG/KT/KT) (MB)    (FT/S) (FT/S)
CHESAPEAKE LIGHT 0200   24     340/ 27/ 30 1029.0
64 E VA BEACH    0250   28 50  330/ 27/ 35 1027.3    9/ 7
DUCK             0200   29                 1027.5
2 E DUCK         0211      42                N/A     4/ 7
OREGON INLET     0200   27 38              1028.1
13E OREGON INLT  0300      45                N/A     6/ 7
HATTERAS CG      0200   32 42              1027.6
DIAMOND BUOY     0250   35 72  340/ 21/ 29 1028.0    6/ 5   2/ 9
CAPE LOOKOUT     NOT AVBL
BEAUFORT LAB     0200   31 42              1028.0
30 SE NEW RVR IN 0208   38 61              1027.5
30 SE NEW RVR IN 0225      61                N/A     5/ 5
27 SE WRIGHTSVLE 0208   38 60  360/ 17/ 25 1026.9
5 SE WRIGHTSVLE  0208   36 50   10/ 17/ 23 1029.0
225 S CAPE HAT   0250   49 68  340/ 21/ 27   N/A     9/ 8
41 SE CHARLESTON 0250   47 66  350/ 14/ 17 1027.8    4/ 6   2/ 8

$$



USA.gov is the U.S. government's official web portal to all federal, state and local government web resources and services.